Time,TemperatureF,DewpointF,PressureIn,WindDirection,WindDirectionDegrees,WindSpeedMPH,WindSpeedGustMPH,Humidity,HourlyPrecipIn,Conditions,Clouds,dailyrainin,SoftwareType,DateUTC
2013-12-23 07:50:00,68.7,67.2,30.10,SW,231,2.0,5.0,95,0.00,,,0.00,Wunderground v.1.15,2013-12-23 12:50:00,
2013-12-23 07:55:00,68.8,67.0,30.11,SW,234,10.0,10.0,94,0.00,,,0.00,Wunderground v.1.15,2013-12-23 12:55:00,
2013-12-23 08:00:00,68.9,67.1,30.11,SW,221,5.0,11.0,94,0.00,,,0.00,Wunderground v.1.15,2013-12-23 13:00:00,
2013-12-23 08:05:00,69.1,67.3,30.11,WSW,238,11.0,14.0,94,0.00,,,0.00,Wunderground v.1.15,2013-12-23 13:05:00,
2013-12-23 08:10:00,69.5,67.7,30.11,SW,230,5.0,12.0,94,0.00,,,0.00,Wunderground v.1.15,2013-12-23 13:10:00,
2013-12-23 08:15:00,69.8,68.0,30.11,SW,225,5.0,15.0,94,0.00,,,0.00,Wunderground v.1.15,2013-12-23 13:15:00,
2013-12-23 08:20:00,70.0,68.2,30.11,SW,215,5.0,8.0,94,0.00,,,0.00,Wunderground v.1.15,2013-12-23 13:20:00,
2013-12-23 08:25:00,70.2,68.4,30.11,SW,227,7.0,13.0,94,0.00,,,0.00,Wunderground v.1.15,2013-12-23 13:25:00,
2013-12-23 08:30:00,70.4,68.3,30.11,South,190,8.0,14.0,93,0.00,,,0.00,Wunderground v.1.15,2013-12-23 13:30:00,
2013-12-23 08:35:00,70.6,68.5,30.11,SW,229,5.0,14.0,93,0.00,,,0.00,Wunderground v.1.15,2013-12-23 13:35:00,
2013-12-23 08:40:00,70.7,68.6,30.11,SW,227,7.0,16.0,93,0.00,,,0.00,Wunderground v.1.15,2013-12-23 13:40:00,
2013-12-23 08:45:00,70.8,68.7,30.11,WSW,241,11.0,16.0,93,0.00,,,0.00,Wunderground v.1.15,2013-12-23 13:45:00,
2013-12-23 08:50:00,70.9,68.8,30.11,SW,235,9.0,9.0,93,0.00,,,0.00,Wunderground v.1.15,2013-12-23 13:50:00,
2013-12-23 08:55:00,71.0,68.6,30.11,SW,236,6.0,17.0,92,0.00,,,0.00,Wunderground v.1.15,2013-12-23 13:55:00,
2013-12-23 09:00:00,71.0,68.6,30.11,WSW,238,5.0,10.0,92,0.00,,,0.00,Wunderground v.1.15,2013-12-23 14:00:00,
2013-12-23 09:05:00,71.0,68.6,30.11,SW,225,1.0,14.0,92,0.00,,,0.00,Wunderground v.1.15,2013-12-23 14:05:00,
2013-12-23 09:10:00,71.0,68.6,30.11,WSW,240,5.0,11.0,92,0.00,,,0.00,Wunderground v.1.15,2013-12-23 14:10:00,
2013-12-23 09:15:00,71.1,68.7,30.11,SW,220,14.0,16.0,92,0.00,,,0.00,Wunderground v.1.15,2013-12-23 14:15:00,
2013-12-23 09:20:00,71.2,68.8,30.11,WSW,254,11.0,12.0,92,0.00,,,0.00,Wunderground v.1.15,2013-12-23 14:20:00,
2013-12-23 09:25:00,71.2,68.8,30.12,SW,228,8.0,13.0,92,0.00,,,0.00,Wunderground v.1.15,2013-12-23 14:25:00,
2013-12-23 09:31:00,71.3,68.9,30.12,WSW,244,5.0,15.0,92,0.00,,,0.00,Wunderground v.1.15,2013-12-23 14:31:00,
2013-12-23 09:36:00,71.5,68.7,30.12,SW,222,5.0,16.0,91,0.00,,,0.00,Wunderground v.1.15,2013-12-23 14:36:00,
2013-12-23 09:41:00,71.6,68.8,30.11,WSW,240,6.0,16.0,91,0.00,,,0.00,Wunderground v.1.15,2013-12-23 14:41:00,
2013-12-23 09:46:00,71.7,68.9,30.11,SW,234,4.0,16.0,91,0.00,,,0.00,Wunderground v.1.15,2013-12-23 14:46:00,
2013-12-23 09:51:00,71.7,68.9,30.11,WSW,238,11.0,14.0,91,0.00,,,0.00,Wunderground v.1.15,2013-12-23 14:51:00,
2013-12-23 09:56:00,71.7,68.9,30.11,WSW,250,14.0,17.0,91,0.00,,,0.00,Wunderground v.1.15,2013-12-23 14:56:00,
2013-12-23 10:01:00,71.7,68.6,30.11,SW,228,2.0,14.0,90,0.00,,,0.00,Wunderground v.1.15,2013-12-23 15:01:00,
2013-12-23 10:06:00,71.6,68.5,30.12,SW,229,12.0,17.0,90,0.00,,,0.00,Wunderground v.1.15,2013-12-23 15:06:00,
2013-12-23 10:11:00,71.6,68.5,30.11,SW,219,11.0,14.0,90,0.00,,,0.00,Wunderground v.1.15,2013-12-23 15:11:00,
2013-12-23 10:16:00,71.7,68.6,30.11,SW,229,7.0,14.0,90,0.00,,,0.00,Wunderground v.1.15,2013-12-23 15:16:00,
2013-12-23 10:21:00,71.7,68.6,30.11,West,259,6.0,13.0,90,0.00,,,0.00,Wunderground v.1.15,2013-12-23 15:21:00,
2013-12-23 10:26:00,71.8,68.7,30.11,West,264,0.0,15.0,90,0.00,,,0.00,Wunderground v.1.15,2013-12-23 15:26:00,
2013-12-23 10:31:00,71.9,68.8,30.11,WSW,250,13.0,18.0,90,0.00,,,0.00,Wunderground v.1.15,2013-12-23 15:31:00,
2013-12-23 10:36:00,72.1,69.0,30.10,SW,231,7.0,18.0,90,0.00,,,0.00,Wunderground v.1.15,2013-12-23 15:36:00,
2013-12-23 10:41:00,72.1,69.0,30.10,WSW,248,9.0,12.0,90,0.00,,,0.00,Wunderground v.1.15,2013-12-23 15:41:00,
2013-12-23 10:46:00,72.3,69.2,30.10,WSW,242,8.0,15.0,90,0.00,,,0.00,Wunderground v.1.15,2013-12-23 15:46:00,
2013-12-23 10:51:00,72.4,69.0,30.10,WSW,238,9.0,18.0,89,0.00,,,0.00,Wunderground v.1.15,2013-12-23 15:51:00,
2013-12-23 10:56:00,72.5,69.1,30.10,SW,227,12.0,18.0,89,0.00,,,0.00,Wunderground v.1.15,2013-12-23 15:56:00,
2013-12-23 11:01:00,72.6,69.2,30.10,SW,222,7.0,19.0,89,0.00,,,0.00,Wunderground v.1.15,2013-12-23 16:01:00,
2013-12-23 11:06:00,72.5,69.1,30.10,SW,236,6.0,19.0,89,0.00,,,0.00,Wunderground v.1.15,2013-12-23 16:06:00,
2013-12-23 11:11:00,72.4,69.0,30.09,SW,228,14.0,21.0,89,0.00,,,0.00,Wunderground v.1.15,2013-12-23 16:11:00,
2013-12-23 11:16:00,72.3,68.9,30.09,SW,228,15.0,21.0,89,0.00,,,0.00,Wunderground v.1.15,2013-12-23 16:16:00,
2013-12-23 11:21:00,72.4,69.0,30.09,SW,234,9.0,14.0,89,0.00,,,0.00,Wunderground v.1.15,2013-12-23 16:21:00,
2013-12-23 11:26:00,72.1,68.7,30.09,WSW,237,13.0,20.0,89,0.00,,,0.00,Wunderground v.1.15,2013-12-23 16:26:00,
2013-12-23 11:31:00,71.9,68.5,30.09,SW,227,5.0,16.0,89,0.00,,,0.00,Wunderground v.1.15,2013-12-23 16:31:00,
2013-12-23 11:36:00,72.0,68.9,30.08,SW,230,14.0,17.0,90,0.00,,,0.00,Wunderground v.1.15,2013-12-23 16:36:00,
2013-12-23 11:41:00,72.3,68.9,30.08,SW,234,4.0,13.0,89,0.00,,,0.00,Wunderground v.1.15,2013-12-23 16:41:00,
2013-12-23 11:46:00,72.6,69.2,30.08,SW,229,13.0,19.0,89,0.00,,,0.00,Wunderground v.1.15,2013-12-23 16:46:00,
2013-12-23 11:51:00,72.4,69.0,30.08,SW,229,5.0,11.0,89,0.00,,,0.00,Wunderground v.1.15,2013-12-23 16:51:00,
2013-12-23 11:56:00,72.1,68.7,30.07,SW,235,10.0,16.0,89,0.00,,,0.00,Wunderground v.1.15,2013-12-23 16:56:00,
2013-12-23 12:01:00,72.0,68.9,30.06,WSW,248,9.0,15.0,90,0.00,,,0.00,Wunderground v.1.15,2013-12-23 17:01:00,
2013-12-23 12:06:00,72.2,69.1,30.06,WSW,238,15.0,18.0,90,0.00,,,0.00,Wunderground v.1.15,2013-12-23 17:06:00,
2013-12-23 12:11:00,72.3,69.2,30.06,SW,227,9.0,20.0,90,0.00,,,0.00,Wunderground v.1.15,2013-12-23 17:11:00,
2013-12-23 12:16:00,72.2,68.8,30.06,WSW,244,12.0,20.0,89,0.00,,,0.00,Wunderground v.1.15,2013-12-23 17:16:00,
2013-12-23 12:21:00,72.4,69.0,30.06,WSW,244,10.0,17.0,89,0.00,,,0.00,Wunderground v.1.15,2013-12-23 17:21:00,
2013-12-23 12:26:00,72.4,69.0,30.06,West,259,14.0,19.0,89,0.00,,,0.00,Wunderground v.1.15,2013-12-23 17:26:00,
2013-12-23 12:31:00,72.6,69.2,30.06,WSW,252,7.0,13.0,89,0.00,,,0.00,Wunderground v.1.15,2013-12-23 17:31:00,
2013-12-23 12:36:00,72.7,69.3,30.06,SW,234,12.0,18.0,89,0.00,,,0.00,Wunderground v.1.15,2013-12-23 17:36:00,
2013-12-23 12:41:00,72.3,68.9,30.06,WSW,248,7.0,14.0,89,0.00,,,0.00,Wunderground v.1.15,2013-12-23 17:41:00,
2013-12-23 12:46:00,71.9,68.5,30.05,WSW,253,16.0,20.0,89,0.00,,,0.00,Wunderground v.1.15,2013-12-23 17:46:00,
2013-12-23 12:51:00,71.4,68.3,30.05,SW,224,8.0,15.0,90,0.00,,,0.00,Wunderground v.1.15,2013-12-23 17:51:00,
2013-12-23 12:56:00,71.2,68.4,30.05,SW,221,13.0,16.0,91,0.00,,,0.00,Wunderground v.1.15,2013-12-23 17:56:00,
2013-12-23 13:01:00,71.1,68.3,30.05,WSW,238,8.0,15.0,91,0.00,,,0.00,Wunderground v.1.15,2013-12-23 18:01:00,
2013-12-23 13:06:00,71.0,68.2,30.05,SW,215,5.0,17.0,91,0.00,,,0.00,Wunderground v.1.15,2013-12-23 18:06:00,
2013-12-23 13:11:00,70.9,68.1,30.05,WSW,242,5.0,14.0,91,0.00,,,0.00,Wunderground v.1.15,2013-12-23 18:11:00,
2013-12-23 13:16:00,70.8,68.0,30.05,SW,229,5.0,14.0,91,0.00,,,0.00,Wunderground v.1.15,2013-12-23 18:16:00,
2013-12-23 13:21:00,70.8,68.4,30.05,SW,233,4.0,13.0,92,0.00,,,0.00,Wunderground v.1.15,2013-12-23 18:21:00,
2013-12-23 13:26:00,70.8,68.4,30.05,SW,232,15.0,15.0,92,0.00,,,0.00,Wunderground v.1.15,2013-12-23 18:26:00,
2013-12-23 13:31:00,70.8,68.4,30.04,SW,222,6.0,15.0,92,0.00,,,0.00,Wunderground v.1.15,2013-12-23 18:31:00,
2013-12-23 13:36:00,70.9,68.5,30.04,WSW,252,8.0,16.0,92,0.00,,,0.00,Wunderground v.1.15,2013-12-23 18:36:00,
2013-12-23 13:41:00,71.2,68.8,30.04,SW,229,4.0,13.0,92,0.00,,,0.00,Wunderground v.1.15,2013-12-23 18:41:00,
2013-12-23 13:46:00,71.4,68.6,30.05,WSW,238,6.0,14.0,91,0.00,,,0.00,Wunderground v.1.15,2013-12-23 18:46:00,
2013-12-23 13:51:00,71.2,68.4,30.04,SW,232,0.0,11.0,91,0.00,,,0.00,Wunderground v.1.15,2013-12-23 18:51:00,
2013-12-23 13:56:00,71.0,68.2,30.04,WSW,242,4.0,12.0,91,0.00,,,0.00,Wunderground v.1.15,2013-12-23 18:56:00,
2013-12-23 14:01:00,70.8,68.0,30.04,WSW,248,11.0,14.0,91,0.00,,,0.00,Wunderground v.1.15,2013-12-23 19:01:00,
2013-12-23 14:06:00,69.8,67.1,30.05,WSW,251,8.0,14.0,91,0.00,,,0.00,Wunderground v.1.15,2013-12-23 19:06:00,
2013-12-23 14:11:00,69.7,67.3,30.04,WSW,250,9.0,15.0,92,0.00,,,0.00,Wunderground v.1.15,2013-12-23 19:11:00,
2013-12-23 14:16:00,70.1,68.0,30.04,WSW,253,4.0,18.0,93,0.00,,,0.00,Wunderground v.1.15,2013-12-23 19:16:00,
2013-12-23 14:21:00,70.2,67.8,30.04,WSW,256,9.0,13.0,92,0.00,,,0.00,Wunderground v.1.15,2013-12-23 19:21:00,
2013-12-23 14:26:00,70.0,67.6,30.04,WSW,242,11.0,13.0,92,0.00,,,0.00,Wunderground v.1.15,2013-12-23 19:26:00,
2013-12-23 14:31:00,69.3,66.6,30.03,WSW,243,9.0,13.0,91,0.00,,,0.00,Wunderground v.1.15,2013-12-23 19:31:00,
2013-12-23 14:36:00,68.8,66.4,30.03,WSW,248,7.0,13.0,92,0.00,,,0.00,Wunderground v.1.15,2013-12-23 19:36:00,
2013-12-23 14:41:00,69.0,66.9,30.03,WSW,241,9.0,12.0,93,0.00,,,0.00,Wunderground v.1.15,2013-12-23 19:41:00,
2013-12-23 14:46:00,69.1,67.0,30.03,WSW,242,6.0,12.0,93,0.00,,,0.00,Wunderground v.1.15,2013-12-23 19:46:00,
2013-12-23 14:51:00,69.2,67.1,30.03,WSW,237,7.0,17.0,93,0.00,,,0.00,Wunderground v.1.15,2013-12-23 19:51:00,
2013-12-23 14:56:00,69.5,67.7,30.03,SW,231,7.0,17.0,94,0.00,,,0.00,Wunderground v.1.15,2013-12-23 19:56:00,
2013-12-23 15:01:00,69.6,67.5,30.03,WSW,250,11.0,18.0,93,0.00,,,0.00,Wunderground v.1.15,2013-12-23 20:01:00,
2013-12-23 15:07:00,69.3,67.2,30.03,SW,229,8.0,18.0,93,0.00,,,0.00,Wunderground v.1.15,2013-12-23 20:07:00,
2013-12-23 15:12:00,68.9,66.8,30.03,SW,232,7.0,12.0,93,0.00,,,0.00,Wunderground v.1.15,2013-12-23 20:12:00,
2013-12-23 15:17:00,68.8,66.7,30.03,SW,232,11.0,12.0,93,0.00,,,0.00,Wunderground v.1.15,2013-12-23 20:17:00,
2013-12-23 15:22:00,68.8,66.7,30.02,SW,224,5.0,14.0,93,0.00,,,0.00,Wunderground v.1.15,2013-12-23 20:22:00,
2013-12-23 15:27:00,68.8,66.7,30.02,WSW,239,6.0,16.0,93,0.00,,,0.00,Wunderground v.1.15,2013-12-23 20:27:00,
2013-12-23 15:32:00,68.6,66.5,30.03,SW,222,6.0,12.0,93,0.00,,,0.00,Wunderground v.1.15,2013-12-23 20:32:00,
2013-12-23 15:37:00,68.6,66.5,30.03,WSW,250,1.0,14.0,93,0.00,,,0.00,Wunderground v.1.15,2013-12-23 20:37:00,
2013-12-23 15:42:00,68.4,66.3,30.02,WSW,246,8.0,10.0,93,0.00,,,0.00,Wunderground v.1.15,2013-12-23 20:42:00,
2013-12-23 15:47:00,68.1,66.0,30.02,West,265,8.0,15.0,93,0.00,,,0.00,Wunderground v.1.15,2013-12-23 20:47:00,
2013-12-23 15:52:00,68.0,65.9,30.03,WSW,242,8.0,12.0,93,0.00,,,0.00,Wunderground v.1.15,2013-12-23 20:52:00,
2013-12-23 15:57:00,68.0,65.9,30.02,SW,234,4.0,17.0,93,0.00,,,0.00,Wunderground v.1.15,2013-12-23 20:57:00,
2013-12-23 16:02:00,68.1,66.0,30.02,SW,232,5.0,13.0,93,0.00,,,0.00,Wunderground v.1.15,2013-12-23 21:02:00,
2013-12-23 16:07:00,68.2,66.1,30.01,SW,215,4.0,16.0,93,0.00,,,0.00,Wunderground v.1.15,2013-12-23 21:07:00,
2013-12-23 16:12:00,68.2,66.1,30.01,SW,234,10.0,13.0,93,0.00,,,0.00,Wunderground v.1.15,2013-12-23 21:12:00,
2013-12-23 16:17:00,68.1,66.0,30.01,SSW,213,4.0,14.0,93,0.00,,,0.00,Wunderground v.1.15,2013-12-23 21:17:00,
2013-12-23 16:22:00,68.2,66.1,30.01,SW,236,6.0,15.0,93,0.00,,,0.00,Wunderground v.1.15,2013-12-23 21:22:00,
2013-12-23 16:27:00,68.4,66.3,30.01,WSW,244,10.0,15.0,93,0.00,,,0.00,Wunderground v.1.15,2013-12-23 21:27:00,
2013-12-23 16:32:00,68.6,66.5,30.01,SW,229,17.0,17.0,93,0.00,,,0.00,Wunderground v.1.15,2013-12-23 21:32:00,
2013-12-23 16:37:00,68.6,66.5,30.01,WSW,237,6.0,17.0,93,0.00,,,0.00,Wunderground v.1.15,2013-12-23 21:37:00,
2013-12-23 16:42:00,68.6,66.5,30.01,WSW,237,3.0,12.0,93,0.00,,,0.00,Wunderground v.1.15,2013-12-23 21:42:00,
2013-12-23 16:47:00,68.9,67.1,30.01,SW,221,9.0,17.0,94,0.00,,,0.00,Wunderground v.1.15,2013-12-23 21:47:00,
2013-12-23 16:52:00,69.0,67.2,30.01,SW,234,10.0,15.0,94,0.00,,,0.00,Wunderground v.1.15,2013-12-23 21:52:00,
2013-12-23 16:57:00,69.1,67.3,30.00,SW,236,4.0,16.0,94,0.00,,,0.00,Wunderground v.1.15,2013-12-23 21:57:00,
2013-12-23 17:02:00,69.1,67.3,30.00,SW,216,7.0,15.0,94,0.00,,,0.00,Wunderground v.1.15,2013-12-23 22:02:00,
2013-12-23 17:07:00,69.2,67.4,30.00,WSW,250,5.0,16.0,94,0.00,,,0.00,Wunderground v.1.15,2013-12-23 22:07:00,
2013-12-23 17:13:00,69.2,67.4,30.00,WSW,243,6.0,16.0,94,0.00,,,0.00,Wunderground v.1.15,2013-12-23 22:13:00,
2013-12-23 17:18:00,69.2,67.4,30.01,WSW,244,4.0,16.0,94,0.00,,,0.00,Wunderground v.1.15,2013-12-23 22:18:00,
2013-12-23 17:23:00,69.2,67.4,30.00,SW,232,10.0,18.0,94,0.00,,,0.00,Wunderground v.1.15,2013-12-23 22:23:00,
2013-12-23 17:28:00,69.3,67.2,30.00,SW,236,6.0,18.0,93,0.00,,,0.00,Wunderground v.1.15,2013-12-23 22:28:00,
2013-12-23 17:33:00,69.3,67.2,30.00,SW,236,10.0,15.0,93,0.00,,,0.00,Wunderground v.1.15,2013-12-23 22:33:00,
2013-12-23 17:38:00,69.4,67.3,30.00,SW,215,8.0,16.0,93,0.00,,,0.00,Wunderground v.1.15,2013-12-23 22:38:00,
2013-12-23 17:43:00,69.5,67.1,30.00,SW,232,6.0,16.0,92,0.00,,,0.00,Wunderground v.1.15,2013-12-23 22:43:00,
2013-12-23 17:48:00,69.5,66.8,30.00,WSW,238,8.0,17.0,91,0.00,,,0.00,Wunderground v.1.15,2013-12-23 22:48:00,
2013-12-23 17:53:00,69.5,66.8,30.00,SW,215,8.0,12.0,91,0.00,,,0.00,Wunderground v.1.15,2013-12-23 22:53:00,
2013-12-23 17:58:00,69.4,66.7,30.00,SSW,202,3.0,15.0,91,0.00,,,0.00,Wunderground v.1.15,2013-12-23 22:58:00,
2013-12-23 18:03:00,69.4,66.7,30.00,SW,233,2.0,13.0,91,0.00,,,0.00,Wunderground v.1.15,2013-12-23 23:03:00,
2013-12-23 18:08:00,69.2,66.1,30.00,WSW,237,2.0,14.0,90,0.00,,,0.00,Wunderground v.1.15,2013-12-23 23:08:00,
2013-12-23 18:13:00,69.2,66.1,30.00,SW,224,9.0,16.0,90,0.00,,,0.00,Wunderground v.1.15,2013-12-23 23:13:00,
2013-12-23 18:18:00,69.1,66.0,30.01,SW,235,1.0,16.0,90,0.00,,,0.00,Wunderground v.1.15,2013-12-23 23:18:00,
2013-12-23 18:23:00,69.0,65.9,30.01,SW,231,7.0,14.0,90,0.00,,,0.00,Wunderground v.1.15,2013-12-23 23:23:00,
2013-12-23 18:28:00,68.8,65.7,30.01,WSW,240,8.0,16.0,90,0.00,,,0.00,Wunderground v.1.15,2013-12-23 23:28:00,
2013-12-23 18:33:00,68.6,65.5,30.01,SW,220,5.0,12.0,90,0.00,,,0.00,Wunderground v.1.15,2013-12-23 23:33:00,
2013-12-23 18:38:00,68.5,65.4,30.01,SW,232,7.0,16.0,90,0.00,,,0.00,Wunderground v.1.15,2013-12-23 23:38:00,
2013-12-23 18:43:00,68.6,65.5,30.01,WSW,244,12.0,12.0,90,0.00,,,0.00,Wunderground v.1.15,2013-12-23 23:43:00,
2013-12-23 18:48:00,68.7,65.6,30.01,SW,230,11.0,17.0,90,0.00,,,0.00,Wunderground v.1.15,2013-12-23 23:48:00,
2013-12-23 18:53:00,68.7,65.6,30.01,SW,230,6.0,17.0,90,0.00,,,0.00,Wunderground v.1.15,2013-12-23 23:53:00,
2013-12-23 18:58:00,68.7,65.6,30.01,SW,236,7.0,17.0,90,0.00,,,0.00,Wunderground v.1.15,2013-12-23 23:58:00,
2013-12-23 19:03:00,68.6,65.5,30.01,SW,223,4.0,14.0,90,0.00,,,0.00,Wunderground v.1.15,2013-12-24 00:03:00,
2013-12-23 19:08:00,68.6,65.9,30.02,WSW,241,5.0,16.0,91,0.00,,,0.00,Wunderground v.1.15,2013-12-24 00:08:00,
2013-12-23 19:13:00,68.6,65.9,30.01,SW,235,5.0,13.0,91,0.00,,,0.00,Wunderground v.1.15,2013-12-24 00:13:00,
2013-12-23 19:18:00,68.6,65.9,30.02,SW,225,5.0,13.0,91,0.00,,,0.00,Wunderground v.1.15,2013-12-24 00:18:00,
2013-12-23 19:23:00,68.6,65.9,30.02,WSW,244,11.0,16.0,91,0.00,,,0.00,Wunderground v.1.15,2013-12-24 00:23:00,
2013-12-23 19:28:00,68.5,65.8,30.02,SW,232,10.0,16.0,91,0.00,,,0.00,Wunderground v.1.15,2013-12-24 00:28:00,
2013-12-23 19:33:00,68.5,65.8,30.02,WSW,247,11.0,14.0,91,0.00,,,0.00,Wunderground v.1.15,2013-12-24 00:33:00,
2013-12-23 19:38:00,68.6,65.9,30.02,WSW,247,9.0,14.0,91,0.00,,,0.00,Wunderground v.1.15,2013-12-24 00:38:00,
2013-12-23 19:43:00,68.5,65.8,30.01,SW,232,8.0,15.0,91,0.00,,,0.00,Wunderground v.1.15,2013-12-24 00:43:00,
2013-12-23 19:48:00,68.5,65.8,30.01,SW,226,5.0,15.0,91,0.00,,,0.00,Wunderground v.1.15,2013-12-24 00:48:00,
2013-12-23 19:53:00,68.5,66.1,30.01,SW,235,0.0,14.0,92,0.00,,,0.00,Wunderground v.1.15,2013-12-24 00:53:00,
2013-12-23 19:58:00,68.6,66.2,30.01,SSW,213,9.0,14.0,92,0.00,,,0.00,Wunderground v.1.15,2013-12-24 00:58:00,
2013-12-23 20:03:00,68.7,66.3,30.01,SW,229,6.0,13.0,92,0.00,,,0.00,Wunderground v.1.15,2013-12-24 01:03:00,
2013-12-23 20:08:00,68.6,66.2,30.01,SW,229,5.0,13.0,92,0.00,,,0.00,Wunderground v.1.15,2013-12-24 01:08:00,
2013-12-23 20:13:00,68.6,66.2,30.01,WSW,242,11.0,15.0,92,0.00,,,0.00,Wunderground v.1.15,2013-12-24 01:13:00,
2013-12-23 20:19:00,68.6,66.5,30.00,SW,220,5.0,15.0,93,0.00,,,0.00,Wunderground v.1.15,2013-12-24 01:19:00,
2013-12-23 20:24:00,68.6,66.5,30.00,WSW,237,5.0,14.0,93,0.00,,,0.00,Wunderground v.1.15,2013-12-24 01:24:00,
2013-12-23 20:29:00,68.6,66.5,30.00,SW,221,3.0,15.0,93,0.00,,,0.00,Wunderground v.1.15,2013-12-24 01:29:00,
2013-12-23 20:34:00,68.7,66.6,30.00,SW,214,6.0,17.0,93,0.00,,,0.00,Wunderground v.1.15,2013-12-24 01:34:00,
2013-12-23 20:39:00,68.7,66.6,30.00,SW,232,12.0,18.0,93,0.00,,,0.00,Wunderground v.1.15,2013-12-24 01:39:00,
2013-12-23 20:44:00,68.6,66.2,30.00,SW,236,6.0,16.0,92,0.00,,,0.00,Wunderground v.1.15,2013-12-24 01:44:00,
2013-12-23 20:49:00,68.6,66.5,30.00,SW,234,10.0,16.0,93,0.00,,,0.00,Wunderground v.1.15,2013-12-24 01:49:00,
2013-12-23 20:54:00,68.6,66.5,29.99,SW,221,12.0,13.0,93,0.00,,,0.00,Wunderground v.1.15,2013-12-24 01:54:00,
2013-12-23 20:59:00,68.7,66.6,30.00,West,277,9.0,14.0,93,0.00,,,0.00,Wunderground v.1.15,2013-12-24 01:59:00,
2013-12-23 21:04:00,68.7,66.6,29.99,SW,230,8.0,12.0,93,0.00,,,0.00,Wunderground v.1.15,2013-12-24 02:04:00,
2013-12-23 21:09:00,68.9,66.8,29.99,SW,236,9.0,17.0,93,0.00,,,0.00,Wunderground v.1.15,2013-12-24 02:09:00,
2013-12-23 21:14:00,69.0,66.9,29.99,SW,219,7.0,17.0,93,0.00,,,0.00,Wunderground v.1.15,2013-12-24 02:14:00,
2013-12-23 21:19:00,69.1,67.0,29.99,SW,217,8.0,17.0,93,0.00,,,0.00,Wunderground v.1.15,2013-12-24 02:19:00,
2013-12-23 21:24:00,69.1,67.0,29.99,WSW,240,11.0,15.0,93,0.00,,,0.00,Wunderground v.1.15,2013-12-24 02:24:00,
2013-12-23 21:29:00,69.0,66.9,29.99,SW,221,14.0,15.0,93,0.00,,,0.00,Wunderground v.1.15,2013-12-24 02:29:00,
2013-12-23 21:34:00,68.4,66.0,30.00,West,273,12.0,18.0,92,0.00,,,0.00,Wunderground v.1.15,2013-12-24 02:34:00,
2013-12-23 21:39:00,68.1,66.3,30.00,West,275,15.0,21.0,94,1.70,,,0.03,Wunderground v.1.15,2013-12-24 02:39:00,
2013-12-23 21:44:00,67.6,65.8,30.00,West,265,11.0,15.0,94,0.48,,,0.08,Wunderground v.1.15,2013-12-24 02:44:00,
2013-12-23 21:49:00,67.2,65.4,30.00,WSW,256,13.0,15.0,94,0.10,,,0.08,Wunderground v.1.15,2013-12-24 02:49:00,
2013-12-23 21:54:00,66.9,65.4,30.00,WSW,252,7.0,17.0,95,0.05,,,0.08,Wunderground v.1.15,2013-12-24 02:54:00,
2013-12-23 21:59:00,66.6,65.1,30.00,WSW,248,8.0,17.0,95,0.04,,,0.08,Wunderground v.1.15,2013-12-24 02:59:00,
2013-12-23 22:04:00,66.3,64.8,30.00,SW,232,10.0,13.0,95,0.00,,,0.08,Wunderground v.1.15,2013-12-24 03:04:00,
2013-12-23 22:09:00,66.2,65.0,30.00,WSW,258,7.0,15.0,96,0.00,,,0.08,Wunderground v.1.15,2013-12-24 03:09:00,
2013-12-23 22:14:00,66.0,64.8,30.00,WSW,250,5.0,13.0,96,0.00,,,0.08,Wunderground v.1.15,2013-12-24 03:14:00,
2013-12-23 22:19:00,65.9,64.7,30.00,WSW,252,8.0,13.0,96,0.00,,,0.08,Wunderground v.1.15,2013-12-24 03:19:00,
2013-12-23 22:24:00,66.1,64.9,30.00,WSW,256,3.0,9.0,96,0.00,,,0.08,Wunderground v.1.15,2013-12-24 03:24:00,
2013-12-23 22:29:00,65.8,64.3,30.01,NW,316,12.0,17.0,95,0.00,,,0.08,Wunderground v.1.15,2013-12-24 03:29:00,
2013-12-23 22:34:00,63.2,61.4,30.01,NW,321,3.0,18.0,94,0.00,,,0.08,Wunderground v.1.15,2013-12-24 03:34:00,
2013-12-23 22:39:00,62.2,60.8,30.01,NNW,329,8.0,18.0,95,0.00,,,0.08,Wunderground v.1.15,2013-12-24 03:39:00,
2013-12-23 22:44:00,61.7,60.5,30.02,NNW,329,10.0,13.0,96,0.00,,,0.08,Wunderground v.1.15,2013-12-24 03:44:00,
2013-12-23 22:49:00,61.3,60.2,30.02,NNW,344,8.0,13.0,96,0.00,,,0.08,Wunderground v.1.15,2013-12-24 03:49:00,
2013-12-23 22:54:00,60.5,59.1,30.03,North,11,17.0,18.0,95,0.00,,,0.08,Wunderground v.1.15,2013-12-24 03:54:00,
2013-12-23 22:59:00,57.3,55.3,30.02,NE,56,18.0,22.0,93,0.00,,,0.08,Wunderground v.1.15,2013-12-24 03:59:00,
2013-12-23 23:04:00,56.4,55.0,30.01,NE,44,17.0,21.0,95,0.00,,,0.08,Wunderground v.1.15,2013-12-24 04:04:00,
2013-12-23 23:09:00,56.2,54.8,30.02,NE,42,20.0,21.0,95,0.00,,,0.08,Wunderground v.1.15,2013-12-24 04:09:00,
2013-12-23 23:14:00,56.1,55.0,30.02,ENE,57,12.0,24.0,96,0.00,,,0.08,Wunderground v.1.15,2013-12-24 04:14:00,
2013-12-23 23:19:00,55.9,54.5,30.02,ENE,63,19.0,24.0,95,0.00,,,0.08,Wunderground v.1.15,2013-12-24 04:19:00,
2013-12-23 23:24:00,55.7,54.3,30.02,ENE,59,19.0,20.0,95,0.00,,,0.08,Wunderground v.1.15,2013-12-24 04:24:00,
2013-12-23 23:29:00,55.4,54.0,30.01,NE,47,17.0,23.0,95,0.00,,,0.08,Wunderground v.1.15,2013-12-24 04:29:00,
2013-12-23 23:34:00,54.9,53.5,30.02,ENE,64,19.0,23.0,95,0.00,,,0.08,Wunderground v.1.15,2013-12-24 04:34:00,
2013-12-23 23:39:00,54.6,53.2,30.01,NE,55,17.0,24.0,95,0.00,,,0.08,Wunderground v.1.15,2013-12-24 04:39:00,
2013-12-23 23:45:00,54.4,53.0,30.02,NE,46,17.0,24.0,95,0.00,,,0.08,Wunderground v.1.15,2013-12-24 04:45:00,
2013-12-23 23:50:00,54.3,52.9,30.01,NE,55,13.0,16.0,95,0.00,,,0.08,Wunderground v.1.15,2013-12-24 04:50:00,
2013-12-23 23:55:00,54.1,52.7,30.01,ENE,60,19.0,21.0,95,0.00,,,0.08,Wunderground v.1.15,2013-12-24 04:55:00,